This demonstration page uses our WeatherBlox Daily Observations layout. Learn more.

Left ArrowRight Arrow

Hourly Observations for October 6, 2018

Temp ( °F °C ) Dew Point ( °F °C ) Humidity (%) Winds ( mph kmh ) Pressure ( in mb ) Visibility ( mi km ) Precip ( " mm )
12:51 am 00:51 Clear 65 18.3 45 7.2 49 49 WNW 10 17 29.75 1008 10 16 0.00 0.00
1:51 am 01:51 Clear 60 15.6 45 7.2 58 58 WNW 5 7 29.75 1008 10 16 0.00 0.00
2:51 am 02:51 Clear 56 13.3 44 6.7 65 65 Calm 29.76 1008 10 16 0.00 0.00
3:51 am 03:51 Clear 55 12.8 44 6.7 67 67 ESE 5 7 29.76 1008 10 16 0.00 0.00
4:51 am 04:51 Clear 53 11.7 43 6.1 69 69 E 5 7 29.77 1008 10 16 0.00 0.00
5:51 am 05:51 Clear 53 11.7 44 6.7 72 72 SE 5 7 29.77 1008 10 16 0.00 0.00
6:51 am 06:51 Sunny 54 12.2 44 6.7 69 69 SE 5 7 29.79 1009 10 16 0.00 0.00
7:51 am 07:51 Sunny 63 17.2 43 6.1 48 48 ESE 7 11 29.79 1009 10 16 0.00 0.00
8:51 am 08:51 Sunny 68 20 42 5.6 39 39 ESE 8 13 29.79 1009 10 16 0.00 0.00
9:51 am 09:51 Sunny 72 22.2 43 6.1 35 35 SE 7 11 29.78 1009 10 16 0.00 0.00
10:51 am 10:51 Sunny 75 23.9 45 7.2 34 34 VRB 3 6 29.76 1008 10 16 0.00 0.00
11:51 am 11:51 Sunny 78 25.6 41 5 27 27 SSW 3 6 29.73 1007 10 16 0.00 0.00
12:51 pm 12:51 Sunny 81 27.2 36 2.2 20 20 VRB 5 7 29.68 1005 10 16 0.00 0.00
1:51 pm 13:51 Sunny 83 28.3 37 2.8 19 19 VRB 6 9 29.65 1004 10 16 0.00 0.00
2:51 pm 14:51 Sunny 84 28.9 35 1.7 17 17 N 6 9 29.63 1003 10 16 0.00 0.00
3:51 pm 15:51 Sunny 84 28.9 33 0.6 16 16 SW 5 7 29.60 1003 10 16 0.00 0.00
4:51 pm 16:51 Sunny 83 28.3 34 1.1 17 17 NNW 8 13 29.60 1002 10 16 0.00 0.00
5:51 pm 17:51 Sunny 79 26.1 35 1.7 20 20 NW 10 17 29.61 1003 10 16 0.00 0.00
6:51 pm 18:51 Clear 76 24.4 37 2.8 24 24 NW 9 15 29.61 1003 10 16 0.00 0.00
7:51 pm 19:51 Clear 73 22.8 37 2.8 27 27 NW 8 13 29.61 1003 10 16 0.00 0.00
8:51 pm 20:51 Clear 73 22.8 40 4.4 30 30 NW 8 13 29.61 1003 10 16 0.00 0.00
9:51 pm 21:51 Clear 70 21.1 41 5 35 35 NNW 7 11 29.62 1003 10 16 0.00 0.00
10:51 pm 22:51 Clear 69 20.6 41 5 36 36 S 3 6 29.61 1003 10 16 0.00 0.00
11:51 pm 23:51 Clear 67 19.4 41 5 39 39 Calm 29.60 1002 10 16 0.00 0.00

Powered by AerisWeather